Probability
75 71 65 62 60 60 61 63 66 69 71 75 79 83 84 87 90 91 87 81 78 81 86 88 86 83 81 77 70 59 47 40 35 28 18 10 4 5 7 8 7 7 8
66 61 55 49 46 45 47 51 56 58 59 61 69 77 81 83 85 87 87 84 82 83 85 86 86 84 81 75 66 56 48 40 35 29 20 11 5 4 6 7 6 6 7
50 45 38 32 28 27 30 35 39 39 38 40 51 64 73 76 77 79 81 82 82 81 83 85 85 83 81 74 64 56 51 43 35 29 21 11 4 2 2 3 3 3 4
32 29 23 17 16 18 22 28 29 25 22 24 31 42 52 57 60 61 63 66 68 71 77 82 82 81 79 75 67 59 53 47 39 30 20 11 4 1 1 0 0 1 1
16 15 12 10 11 17 25 31 29 22 18 16 16 18 24 30 33 35 37 39 43 50 59 67 72 74 74 72 67 60 53 47 40 31 22 13 6 3 2 1 1 2 1
7 8 9 9 12 20 30 34 30 23 19 15 9 5 7 10 12 14 16 18 21 25 32 42 50 56 60 61 60 57 52 44 37 31 24 16 10 6 3 3 3 3 3
5 7 9 10 14 22 28 27 22 18 18 15 8 3 2 2 3 5 6 7 8 10 14 20 27 34 39 44 48 51 48 40 35 30 23 17 12 6 3 3 3 3 2
6 7 9 10 15 20 20 17 13 13 15 14 9 3 1 0 0 1 1 2 3 4 5 8 13 18 23 29 36 40 39 35 30 25 20 16 11 6 3 3 2 1 1
5 6 6 8 12 14 12 9 9 10 12 11 9 5 2 0 0 0 0 0 1 1 1 3 6 10 13 18 24 28 28 25 21 17 14 12 9 5 2 1 1 0 0
3 3 3 4 6 7 6 6 7 7 7 8 8 6 2 0 0 0 0 0 0 0 0 1 3 5 7 10 15 18 17 14 10 8 8 7 6 4 3 1 0 0 0
1 1 1 1 2 3 3 5 6 4 3 4 6 5 2 0 0 0 0 0 0 0 0 0 1 2 4 7 10 11 9 6 3 3 3 4 3 3 2 1 0 0 0
0 0 0 0 0 1 2 4 5 3 1 2 4 4 1 0 0 0 0 0 0 0 0 0 0 2 4 5 7 6 3 1 0 1 2 2 1 1 1 0 0 0 0
0 0 0 0 0 0 1 3 5 4 1 2 4 3 1 0 0 0 0 0 0 0 0 0 0 1 2 3 4 2 1 0 0 1 1 1 0 0 0 0 0 0 0
0 0 0 0 0 0 0 1 3 4 2 2 3 2 0 0 0 0 0 0 0 0 0 0 0 0 1 1 2 1 0 0 0 0 0 0 0 0 0 0 0 0 0
0 0 0 0 0 0 0 0 1 3 2 2 3 2 1 0 0 0 0 0 0 0 0 0 0 0 0 1 1 1 0 0 0 0 0 0 0 0 0 0 0 0 0
0 0 0 0 0 0 0 0 1 1 1 1 2 2 1 0 0 0 0 0 0 0 0 0 0 0 0 0 0 0 0 0 0 0 0 0 0 0 0 0 0 0 0
0 0 0 0 0 0 0 0 0 0 0 0 1 1 1 1 0 0 0 0 0 0 0 0 0 0 0 0 0 0 0 0 0 0 0 0 0 0 0 0 0 0 0
0 0 0 0 0 0 0 0 0 0 0 0 0 1 1 1 0 0 0 0 0 0 0 0 0 0 0 0 0 0 0 0 0 0 0 0 0 0 0 0 0 0 0
0 0 0 0 0 0 0 0 0 0 0 0 0 0 0 0 0 0 0 0 0 0 0 0 0 0 0 0 0 0 0 0 0 0 0 0 0 0 0 0 0 0 0
0 0 0 0 0 0 0 0 0 0 0 0 0 0 0 0 0 0 0 0 0 0 0 0 0 0 0 0 0 0 0 0 0 0 0 0 0 0 0 0 0 0 0
0 0 0 0 0 0 0 0 0 0 0 0 0 0 0 0 0 0 0 0 0 0 0 0 0 0 0 0 0 0 0 0 0 0 0 0 0 0 0 0 0 0 0
0 0 0 0 0 0 0 0 0 0 0 0 0 0 0 0 0 0 0 0 0 0 0 0 0 0 0 0 0 0 0 0 0 0 0 0 0 0 0 0 0 0 0
0 0 0 0 0 0 0 0 0 0 0 0 0 0 0 0 0 0 0 0 0 0 0 0 0 0 0 0 0 0 0 0 0 0 0 0 0 0 0 0 0 0 0
0 0 0 0 0 0 0 0 0 0 0 0 0 0 0 0 0 0 0 0 0 0 0 0 0 0 0 0 0 0 0 0 0 0 0 0 0 0 0 0 0 0 0
0 0 0 0 0 0 0 0 0 0 0 0 0 0 0 0 0 0 0 0 0 0 0 0 0 0 0 0 0 0 0 0 0 0 0 0 0 0 0 0 0 0 0
0 0 0 0 0 0 0 0 0 0 0 0 0 0 0 0 0 0 0 0 0 0 0 0 0 0 0 0 0 0 0 0 0 0 0 0 0 0 0 0 0 0 0
Wind_Speed
7 9 10 10 9 8 8 6 5 3 1 1 1 2 3 4 5 5 7 7 6 7 7 7 6 6 6 6 6 5 5 5 3 2 3 4 5 6 5 5 4 5 4
6 7 7 7 7 6 6 5 4 2 1 0 1 2 3 4 4 4 5 6 6 6 6 7 7 7 6 7 7 6 5 5 5 4 3 3 4 4 5 4 4 4 3
7 6 6 6 6 5 5 4 4 2 1 0 1 2 2 3 3 4 4 5 6 7 7 7 8 8 7 7 9 8 9 7 6 5 5 4 5 3 2 3 3 2 2
5 5 5 5 5 5 5 5 4 3 1 1 1 2 2 3 4 4 4 6 6 7 7 7 7 7 7 9 10 10 8 8 6 4 5 4 4 3 2 2 2 2 3
5 5 5 5 5 5 5 4 4 2 1 1 1 1 2 3 4 4 5 6 5 6 6 6 6 7 7 9 9 9 9 8 8 6 4 5 4 4 3 3 2 1 2
6 6 5 4 4 4 4 4 3 2 1 1 1 1 2 4 5 6 6 5 5 5 6 6 6 6 6 8 9 9 9 9 9 7 6 5 4 5 4 4 3 2 2
6 6 6 6 6 6 5 5 5 3 2 1 0 0 1 2 3 5 5 6 6 6 7 6 6 6 6 7 7 7 8 9 9 8 6 6 5 4 4 4 3 2 2
7 7 7 7 7 7 7 6 6 5 3 2 1 0 0 1 2 3 4 5 5 6 8 7 7 7 7 6 6 6 7 6 8 8 7 5 5 4 4 4 3 2 0
8 8 7 7 7 7 7 8 7 5 4 4 2 1 0 0 2 3 4 4 5 6 8 8 7 6 6 5 5 4 4 4 5 6 6 5 4 3 3 3 3 4 3
5 5 6 6 7 7 6 6 7 6 5 4 3 2 1 1 1 2 4 5 6 7 8 8 7 6 5 4 3 3 3 3 3 3 5 4 3 3 3 3 3 3 4
4 4 4 5 6 5 6 6 6 6 5 5 4 3 2 1 1 2 4 5 6 7 7 7 6 5 3 2 1 1 2 4 4 4 6 6 5 4 3 3 3 3 4
4 3 3 3 3 5 5 6 6 6 6 5 4 4 3 1 0 2 3 4 5 6 7 6 5 4 2 0 1 3 3 5 6 5 7 7 6 6 5 4 5 4 4
8 7 5 4 4 4 5 6 6 6 6 5 5 4 3 2 1 2 3 4 5 6 6 5 4 3 3 3 3 4 6 6 6 7 8 7 8 7 5 6 5 4 5
10 10 8 7 6 5 4 5 6 6 6 6 6 5 4 3 3 2 2 3 4 5 6 5 4 4 4 5 6 8 9 9 9 9 9 8 8 8 7 7 6 7 8
14 13 11 9 8 8 6 5 5 6 6 6 6 6 5 4 3 2 1 2 3 4 4 5 6 6 5 6 8 8 10 10 10 10 9 9 11 10 8 7 6 8 7
14 14 14 13 11 10 9 7 7 6 6 7 7 6 6 5 4 3 2 1 1 2 4 5 6 7 6 8 11 10 9 9 10 9 7 9 10 12 12 12 11 9 8
12 13 13 13 12 11 10 9 8 6 6 7 7 7 7 7 6 5 3 2 1 1 3 4 5 6 7 10 11 11 8 8 7 6 6 7 8 8 8 11 13 11 10
11 11 11 12 12 12 12 11 8 5 6 6 7 7 8 8 7 6 5 4 2 2 2 2 3 4 5 8 9 10 8 8 7 6 7 7 6 6 7 8 8 7 6
8 7 7 8 9 11 13 12 9 7 5 6 7 8 9 9 8 8 7 5 4 3 2 3 3 4 3 6 7 8 7 7 6 6 6 7 7 9 11 9 8 7 5
8 8 7 7 7 9 11 11 10 8 7 7 7 7 8 10 10 10 8 5 5 5 4 3 3 4 3 4 6 8 6 6 5 5 5 8 8 10 10 7 7 6 4
11 9 8 7 7 7 7 9 9 10 10 9 7 6 7 9 10 9 7 7 6 6 5 5 3 3 4 4 6 8 5 6 5 4 3 3 9 10 10 8 5 4 3
11 10 8 7 7 6 5 7 9 9 10 9 8 6 7 8 9 9 9 8 9 8 6 5 4 2 3 4 6 9 8 8 6 5 3 3 7 9 8 6 7 8 7
11 9 9 9 8 6 5 7 9 8 9 10 9 7 7 8 8 10 10 9 8 8 7 6 5 4 2 3 6 9 11 11 6 4 7 7 7 6 5 7 8 7 5
10 9 9 9 9 8 7 8 8 8 8 9 10 8 6 7 8 8 9 9 9 9 8 8 7 5 4 3 3 3 5 8 6 5 6 6 5 4 3 4 4 3 3
8 8 8 9 10 9 8 8 7 7 7 8 9 8 6 7 8 8 9 11 10 12 11 9 9 9 7 8 11 8 6 6 6 6 3 2 2 2 2 2 2 3 3
8 8 9 9 10 9 9 9 7 7 6 7 8 6 5 5 6 7 5 6 7 14 15 13 11 9 10 14 15 13 12 12 13 7 3 2 2 3 2 2 2 2 2
Wind_Direction
97 88 85 85 84 81 81 77 71 53 36 344 291 277 275 270 266 257 255 254 246 238 227 231 225 218 220 225 219 219 226 230 202 207 261 266 247 241 241 241 249 249 242
102 96 96 93 94 98 100 99 101 97 80 252 250 248 257 263 258 264 267 263 259 251 244 227 225 220 221 227 226 219 222 225 197 189 203 267 287 258 243 236 235 237 235
128 124 114 112 113 113 121 126 136 132 118 2 337 323 313 305 305 298 286 276 269 260 251 237 230 225 217 223 224 221 221 226 216 200 184 197 229 262 272 238 235 226 230
133 137 135 135 137 147 146 144 147 143 137 84 33 337 312 299 290 290 288 293 286 278 267 254 241 233 224 224 222 218 219 219 222 214 215 211 186 193 261 279 256 246 235
162 167 168 167 169 165 160 160 156 156 152 104 77 347 313 294 298 306 306 303 299 291 285 273 256 244 236 232 228 222 216 215 218 209 202 215 216 204 204 246 266 276 257
183 189 194 185 184 175 165 163 163 185 198 153 80 33 331 323 326 327 323 316 308 302 298 294 280 265 251 240 233 225 221 221 222 219 208 196 190 195 192 212 224 234 254
191 199 202 197 195 188 180 175 173 194 207 184 143 19 342 333 324 318 318 316 312 308 303 302 291 281 266 252 236 227 226 222 221 219 215 209 206 181 173 185 198 219 251
206 210 210 200 197 194 188 185 186 196 197 186 198 185 22 335 307 307 307 307 303 301 302 300 294 285 274 263 243 233 230 223 219 217 206 202 200 183 170 168 164 177 299
218 218 215 201 194 191 192 191 188 195 195 190 189 182 174 319 306 307 309 307 304 306 309 305 299 289 278 267 247 237 230 218 212 205 196 185 173 166 165 161 158 157 154
235 227 215 206 200 197 196 191 189 195 196 191 190 175 175 221 296 317 316 313 312 310 309 309 301 291 280 266 246 233 206 199 190 173 155 149 144 142 148 156 160 159 142
269 253 236 215 205 199 191 189 193 194 196 193 188 175 183 195 335 323 313 314 315 313 310 309 307 300 283 267 240 207 170 152 145 141 138 133 130 127 127 120 116 110 117
337 305 271 236 219 208 202 197 196 197 199 192 183 180 177 167 305 311 310 314 316 316 316 318 320 325 315 292 156 149 125 125 129 125 124 122 117 107 104 102 98 98 106
358 352 343 318 279 240 217 207 202 201 197 185 177 176 176 182 220 275 302 309 317 321 326 330 345 4 20 51 80 94 96 97 101 109 111 110 108 101 100 98 94 90 90
4 358 348 335 317 288 250 228 219 203 190 182 179 183 189 197 208 233 276 306 318 334 348 355 14 34 49 65 72 80 82 80 79 82 86 90 95 98 95 89 88 92 91
4 359 349 338 328 316 293 260 234 214 196 185 187 193 192 192 192 206 240 300 323 351 8 23 31 40 54 69 78 81 85 82 78 73 74 79 84 84 85 94 94 94 94
356 353 349 344 336 322 308 286 256 229 204 195 196 189 182 181 186 193 203 248 332 7 29 42 46 47 56 76 83 89 86 85 85 80 76 76 73 77 79 86 91 98 104
348 346 343 339 333 328 317 296 274 248 217 206 198 187 181 183 188 186 180 189 193 69 62 55 62 62 56 68 82 88 91 89 90 90 83 82 72 71 78 77 75 73 82
335 334 333 334 333 330 327 315 297 269 238 220 203 190 183 186 184 180 184 188 178 149 116 93 84 81 71 78 89 93 90 91 89 89 91 90 75 76 88 86 76 67 61
302 299 304 310 322 333 331 328 319 302 269 239 218 200 189 185 181 185 188 183 170 161 150 137 124 106 81 84 99 100 95 93 85 83 87 95 87 88 92 89 82 64 39
302 298 301 308 318 328 336 333 329 324 310 287 257 220 195 187 186 188 184 176 169 167 158 152 147 134 126 115 114 116 111 105 96 80 76 87 97 93 91 92 90 76 40
293 292 294 298 301 310 332 332 329 321 310 307 293 253 213 198 190 184 178 172 167 161 159 156 156 151 152 148 142 138 129 133 126 115 101 96 104 96 92 92 92 98 99
292 290 288 286 287 294 306 314 310 310 313 311 299 271 233 212 195 181 178 174 169 164 162 156 155 158 161 160 155 153 152 147 136 141 142 132 115 100 92 83 83 87 89
291 288 285 287 286 283 281 290 294 301 310 313 302 279 245 220 193 182 179 174 172 171 170 168 169 171 171 179 173 164 163 156 143 154 157 146 121 95 77 71 78 81 83
290 290 291 289 289 286 278 273 284 289 299 305 302 290 257 225 199 185 179 177 179 177 176 176 174 168 167 176 168 147 149 148 132 131 143 132 107 85 76 67 68 82 104
295 293 289 286 286 287 283 277 282 284 289 299 297 286 264 233 206 192 187 183 188 184 179 181 175 171 179 194 176 159 156 156 148 130 103 93 87 75 62 64 72 83 90
297 297 293 288 287 287 284 282 279 273 277 291 295 282 271 245 214 190 177 187 182 184 183 178 173 183 182 173 178 176 169 162 151 131 133 150 159 163 160 143 124 120 123